sat.trackr.live / text

‹ back to catalog

STARLINK-11572 [DTC]

NORAD 62990 · 2025-031K

PAYLOAD ACTIVE UNKNOWN

§ Identity

Operator
Country
US
Launch date
2025-02-11
Launch site
AFETR
Launch vehicle
Mass (kg)
RCS (m²)

Purposes: comms

External: N2YO · Heavens-Above · Gunter

§ Orbital elements

Epoch: 2026-09-21T00:17:32.517024Z

Period
91.67 min
Inclination
42.9997°
Eccentricity
0.0001759
Mean motion
15.70920192 rev/d
Perigee alt
355.1 km
Apogee alt
357.5 km
Semi-major
6,734.4 km
B*
1.0986e-3
RAAN
263.9329°
Arg perigee
248.6305°
Mean anomaly
111.4375°
Rev number
9,346

§ Raw data

STARLINK-11572 [DTC]1 62990U 25031K   26264.01218191  .00143454  00000+0  10986-2 0  99962 62990  42.9997 263.9329 0001759 248.6305 111.4375 15.70920192 93462

JSON: /api/v1/satellites/62990 · /tle

For live sub-satellite position, see the globe view (requires WebGL).

§ Visibility from observer

Set your observer location to see the next 7 days of passes ≥ 10°. The values pass through the URL so the page stays shareable.

No JS? Fill the form by hand. The geolocation button needs JavaScript.